1514844001.05,35298,7.75,72484.0,-9.33,-34.77,-34.95,0,*50
1514844002.27,35299,7.75,72476.5,-9.35,-34.59,-34.71,0,*51
1514844003.49,35300,7.75,72482.8,-9.35,-34.71,-34.89,0,*5D
1514844004.76,35301,7.75,72482.5,-9.33,-34.95,-35.13,0,*52
1514844006.03,35302,7.75,72482.3,-9.33,-34.89,-35.07,0,*59
1514844007.27,35303,7.75,72480.8,-9.35,-35.07,-35.13,0,*5C
1514844008.52,35304,7.75,72482.0,-9.35,-35.07,-35.13,0,*5B
1514844009.76,35305,7.75,72478.0,-9.33,-34.89,-35.13,0,*5B
1514844011.0,35306,7.75,72482.0,-9.35,-34.89,-35.23,0,*5D
1514844012.27,35307,7.75,72484.3,-9.33,-34.95,-35.13,0,*54
1514844013.54,35308,7.75,72482.0,-9.37,-34.95,-35.13,0,*5F
1514844014.78,35309,7.75,72480.8,-9.35,-34.89,-35.07,0,*54
1514844016.02,35310,7.75,72478.5,-9.35,-34.89,-35.07,0,*5C
1514844017.26,35311,7.75,72484.0,-9.35,-34.89,-35.07,0,*5D
1514844018.51,35312,7.75,72476.8,-9.35,-34.77,-34.95,0,*55
1514844019.73,35313,7.75,72480.8,-9.35,-34.71,-34.77,0,*5E
1514844021.01,35314,7.75,72480.5,-9.33,-34.71,-34.95,0,*53
1514844022.27,35315,7.75,72478.3,-9.35,-34.95,-35.23,0,*52
1514844023.52,35316,7.75,72480.0,-9.35,-34.77,-34.95,0,*51
1514844024.79,35317,7.75,72478.5,-9.35,-34.95,-35.23,0,*50
1514844026.03,35318,7.75,72478.8,-9.35,-35.13,-35.23,0,*50
1514844027.24,35319,7.75,72482.8,-9.35,-34.89,-35.13,0,*50
1514844028.49,35320,7.75,72480.3,-9.37,-35.01,-35.13,0,*59
1514844029.76,35321,7.75,72482.5,-9.37,-34.83,-35.13,0,*53
1514844031.01,35322,7.75,72482.8,-9.37,-35.13,-35.29,0,*51
1514844032.28,35323,7.75,72480.8,-9.35,-34.95,-35.07,0,*51
1514844033.55,35324,7.75,72482.8,-9.37,-34.95,-35.17,0,*55
1514844034.8,35325,7.75,72484.0,-9.35,-34.95,-35.13,0,*52
1514844036.05,35326,7.75,72480.0,-9.37,-35.01,-35.29,0,*56
1514844037.29,35327,7.75,72482.5,-9.35,-34.89,-34.95,0,*52
1514844038.57,35328,7.75,72482.5,-9.37,-34.83,-35.13,0,*5A
1514844039.84,35329,7.75,72482.5,-9.37,-34.95,-35.13,0,*5C
1514844041.06,35330,7.75,72484.8,-9.39,-35.01,-35.29,0,*5F
1514844042.32,35331,7.75,72480.3,-9.37,-35.01,-35.29,0,*50
1514844043.59,35332,7.75,72480.3,-9.37,-34.95,-35.17,0,*52
1514844044.86,35333,7.75,72484.8,-9.37,-34.83,-35.13,0,*50
1514844046.11,35334,7.75,72486.3,-9.37,-35.13,-35.29,0,*56
1514844047.35,35335,7.75,72482.5,-9.37,-35.13,-35.29,0,*57
1514844048.61,35336,7.75,72480.3,-9.37,-35.17,-35.35,0,*5D
1514844049.85,35337,7.75,72482.5,-9.39,-35.17,-35.35,0,*52
1514844051.12,35338,7.75,72484.3,-9.37,-34.83,-35.01,0,*58
1514844052.37,35339,7.75,72484.3,-9.39,-34.95,-35.17,0,*57
1514844053.61,35340,7.75,72482.3,-9.39,-34.95,-35.29,0,*54
1514844054.86,35341,7.75,72486.8,-9.37,-35.01,-35.13,0,*5E
1514844056.11,35342,7.75,72480.8,-9.39,-34.83,-35.01,0,*5B
1514844057.35,35343,7.75,72482.8,-9.39,-34.95,-35.01,0,*5D
1514844058.56,35344,7.75,72484.0,-9.39,-35.13,-35.17,0,*52
1514844059.8,35345,7.75,72482.0,-9.39,-35.29,-35.35,0,*5A
1514844061.02,35346,7.75,72486.0,-9.39,-35.17,-35.29,0,*59
1514844062.23,35347,7.75,72482.8,-9.39,-35.13,-35.29,0,*5C
1514844063.5,35348,7.75,72484.3,-9.37,-34.95,-35.17,0,*5F
1514844064.75,35349,7.75,72484.3,-9.39,-34.83,-35.01,0,*50
1514844065.99,35350,7.75,72482.5,-9.39,-34.95,-35.13,0,*5C
1514844067.24,35351,7.75,72480.5,-9.39,-34.83,-35.01,0,*59
1514844068.48,35352,7.75,72482.5,-9.39,-34.95,-35.17,0,*5A
1514844069.73,35353,7.75,72486.0,-9.39,-34.83,-35.01,0,*5B
1514844070.99,35354,7.75,72486.5,-9.39,-34.65,-34.83,0,*5F
1514844072.21,35355,7.75,72486.3,-9.39,-34.59,-34.77,0,*5A
1514844073.49,35356,7.75,72486.0,-9.37,-34.83,-35.01,0,*50
1514844074.76,35357,7.75,72484.3,-9.37,-34.83,-35.01,0,*51
1514844076.0,35358,7.75,72486.8,-9.39,-34.95,-35.17,0,*50
1514844077.25,35359,7.75,72480.0,-9.39,-34.95,-35.01,0,*56
1514844078.49,35360,7.75,72480.0,-9.39,-34.95,-35.17,0,*5B
1514844079.74,35361,7.75,72486.5,-9.37,-35.01,-35.29,0,*55
1514844080.96,35362,7.75,72484.0,-9.39,-35.13,-35.29,0,*5B
1514844082.19,35363,7.75,72486.3,-9.39,-35.17,-35.35,0,*53
1514844083.49,35364,7.75,72490.3,-9.41,-35.23,-35.41,0,*5F
1514844084.73,35365,7.75,72488.8,-9.39,-35.29,-35.35,0,*58
1514844086.02,35366,7.75,72484.3,-9.41,-35.23,-35.41,0,*5D
1514844087.31,35367,7.75,72484.8,-9.41,-34.83,-34.83,0,*58
1514844088.53,35368,7.75,72480.3,-9.39,-34.41,-34.59,0,*51
1514844089.79,35369,7.75,72486.3,-9.41,-34.83,-34.89,0,*5C
1514844091.03,35370,7.75,72482.0,-9.39,-34.77,-34.83,0,*5A
1514844092.31,35371,7.75,72484.5,-9.41,-34.83,-35.01,0,*54
1514844093.55,35372,7.75,72484.5,-9.39,-34.83,-35.13,0,*5B
1514844094.79,35373,7.75,72486.0,-9.39,-34.25,-34.53,0,*53
1514844096.0,35374,7.75,72482.0,-9.39,-34.07,-34.25,0,*55
1514844097.23,35375,7.75,72484.3,-9.39,-34.01,-34.25,0,*52
1514844098.47,35376,7.75,72486.5,-9.39,-34.01,-34.25,0,*51
1514844099.75,35377,7.75,72486.5,-9.37,-34.19,-34.35,0,*56
1514844101.04,35378,7.75,72486.8,-9.37,-34.19,-34.35,0,*59
1514844102.28,35379,7.75,72486.8,-9.39,-34.41,-34.53,0,*5B
1514844103.54,35380,7.75,72486.8,-9.37,-34.19,-34.25,0,*5F
1514844104.78,35381,7.75,72484.3,-9.37,-34.07,-34.25,0,*51
1514844106.02,35382,7.75,72484.8,-9.37,-34.25,-34.41,0,*50
1514844107.28,35383,7.75,72486.3,-9.33,-34.13,-34.31,0,*57
1514844108.54,35384,7.75,72484.8,-9.33,-34.13,-34.31,0,*50
1514844109.75,35385,7.75,72484.0,-9.35,-33.95,-34.13,0,*5E
1514844110.99,35386,7.75,72486.5,-9.35,-34.13,-34.31,0,*54
1514844112.25,35387,7.75,72486.5,-9.33,-34.13,-34.31,0,*53
1514844113.52,35388,7.75,72484.8,-9.35,-34.19,-34.35,0,*54
1514844114.81,35389,7.75,72484.3,-9.33,-34.35,-34.53,0,*5D
1514844116.1,35390,7.75,72484.0,-9.33,-34.31,-34.31,0,*55
1514844117.33,35391,7.75,72484.3,-9.31,-34.25,-34.31,0,*53
1514844118.57,35392,7.75,72482.8,-9.31,-34.41,-34.53,0,*56
1514844119.78,35393,7.75,72478.8,-9.31,-34.25,-34.41,0,*56
1514844121.05,35394,7.75,72480.0,-9.29,-34.41,-34.53,0,*59
1514844122.32,35395,7.75,72480.5,-9.29,-34.41,-34.53,0,*58
1514844123.52,35396,7.75,72480.8,-9.31,-34.41,-34.41,0,*51
1514844124.8,35397,7.75,72476.0,-9.29,-34.47,-34.53,0,*5C
1514844126.06,35398,7.75,72480.3,-9.29,-34.31,-34.41,0,*51
1514844127.36,35399,7.75,72480.3,-9.29,-34.65,-34.83,0,*5F
1514844128.66,35400,7.75,72478.3,-9.29,-34.65,-34.65,0,*50
1514844129.96,35401,7.75,72478.0,-9.29,-34.65,-34.65,0,*51
1514844131.24,35402,7.75,72480.8,-9.29,-34.47,-34.65,0,*52
1514844132.49,35403,7.75,72476.0,-9.29,-34.71,-34.89,0,*54
1514844133.76,35404,7.75,72480.5,-9.31,-34.83,-35.07,0,*50
1514844135.03,35405,7.75,72476.8,-9.31,-34.65,-34.83,0,*54
1514844136.28,35406,7.75,72476.8,-9.31,-34.47,-34.65,0,*5F
1514844137.58,35407,7.75,72478.8,-9.29,-34.65,-34.83,0,*5F
1514844138.82,35408,7.69,72476.0,-9.31,-34.71,-34.83,0,*5C
1514844140.07,35409,7.75,72482.3,-9.29,-34.71,-34.89,0,*5E
1514844141.31,35410,7.75,72482.0,-9.29,-34.71,-34.89,0,*56
1514844142.61,35411,7.75,72480.3,-9.29,-34.65,-34.83,0,*58
1514844143.83,35412,7.75,72478.0,-9.31,-34.89,-35.01,0,*5B
1514844145.1,35413,7.75,72482.0,-9.29,-34.83,-35.01,0,*59
1514844146.38,35414,7.75,72478.3,-9.29,-34.31,-34.47,0,*54
1514844147.65,35415,7.75,72474.0,-9.31,-34.53,-34.53,0,*5D
1514844148.92,35416,7.75,72478.0,-9.29,-34.65,-34.89,0,*55
1514844150.19,35417,7.75,72478.0,-9.29,-35.01,-35.07,0,*50
1514844151.46,35418,7.75,72478.3,-9.29,-35.07,-35.17,0,*58
1514844152.71,35419,7.69,72474.0,-9.29,-35.01,-35.17,0,*5F
1514844154.0,35420,7.75,72476.3,-9.29,-35.07,-35.23,0,*54
1514844155.29,35421,7.75,72478.3,-9.29,-34.83,-35.07,0,*5E
1514844156.57,35422,7.75,72476.8,-9.29,-34.83,-35.01,0,*5B
1514844157.82,35423,7.75,72480.3,-9.31,-34.71,-34.83,0,*55
1514844159.08,35424,7.75,72478.0,-9.31,-34.65,-34.83,0,*57
1514844160.36,35425,7.75,72476.8,-9.29,-34.71,-34.83,0,*5A
1514844161.65,35426,7.75,72478.3,-9.29,-34.65,-34.83,0,*5C
1514844162.9,35427,7.75,72482.0,-9.29,-34.71,-35.01,0,*53
1514844164.2,35428,7.75,72476.3,-9.29,-34.53,-34.83,0,*57
1514844165.45,35429,7.75,72478.5,-9.31,-34.47,-34.65,0,*52
1514844166.7,35430,7.75,72476.3,-9.31,-34.47,-34.65,0,*5A
1514844167.96,35431,7.75,72476.8,-9.29,-34.71,-35.01,0,*54
1514844169.23,35432,7.75,72478.3,-9.31,-34.83,-35.07,0,*55
1514844170.48,35433,7.75,72478.3,-9.29,-34.71,-35.01,0,*56
1514844171.73,35434,7.75,72476.3,-9.31,-34.83,-35.01,0,*55
1514844173.0,35435,7.75,72478.8,-9.29,-34.71,-34.83,0,*5B
1514844174.23,35436,7.75,72478.8,-9.31,-34.71,-35.01,0,*5A
1514844175.5,35437,7.75,72478.5,-9.29,-34.83,-34.89,0,*5E
1514844176.74,35438,7.75,72482.5,-9.31,-34.83,-35.17,0,*5E
1514844178.01,35439,7.75,72476.0,-9.29,-34.83,-35.01,0,*51
1514844179.24,35440,7.75,72480.8,-9.31,-34.71,-35.01,0,*5B
1514844180.49,35441,7.75,72478.0,-9.31,-34.83,-35.01,0,*57
1514844181.76,35442,7.75,72476.3,-9.29,-34.83,-34.89,0,*5C
1514844182.97,35443,7.75,72474.8,-9.31,-34.89,-35.17,0,*58
1514844184.19,35444,7.75,72474.0,-9.31,-35.01,-35.17,0,*5E
1514844185.46,35445,7.75,72480.0,-9.29,-35.01,-35.07,0,*57
1514844186.7,35446,7.75,72476.5,-9.31,-34.89,-35.07,0,*5C
1514844187.95,35447,7.75,72480.3,-9.31,-34.83,-35.01,0,*51
1514844189.18,35448,7.75,72476.0,-9.31,-34.71,-35.01,0,*53
1514844190.41,35449,7.75,72478.0,-9.31,-34.71,-35.01,0,*52
1514844191.63,35450,7.75,72476.3,-9.31,-34.71,-34.89,0,*5B
1514844192.88,35451,7.75,72476.5,-9.29,-34.47,-34.71,0,*51
1514844194.12,35452,7.75,72478.0,-9.31,-34.65,-34.71,0,*5B
1514844195.37,35453,7.75,72476.0,-9.31,-34.65,-35.01,0,*5C
1514844196.6,35454,7.75,72474.8,-9.31,-34.71,-35.01,0,*5E
1514844197.83,35455,7.75,72476.3,-9.31,-34.71,-35.01,0,*5F
1514844199.1,35456,7.75,72476.0,-9.29,-34.71,-34.83,0,*5E
1514844200.38,35457,7.75,72478.3,-9.29,-34.83,-35.01,0,*59
1514844201.65,35458,7.75,72480.3,-9.29,-34.83,-35.17,0,*51
1514844202.92,35459,7.75,72476.5,-9.29,-34.65,-34.89,0,*5E
1514844204.19,35460,7.75,72480.3,-9.29,-34.65,-34.89,0,*54
1514844205.48,35461,7.75,72476.8,-9.29,-34.83,-35.07,0,*5A
1514844206.72,35462,7.75,72482.0,-9.31,-34.89,-35.07,0,*5A
1514844208.0,35463,7.75,72480.8,-9.29,-34.83,-35.01,0,*5E
1514844209.22,35464,7.75,72482.0,-9.31,-34.71,-35.01,0,*5D
1514844210.5,35465,7.75,72482.5,-9.29,-34.71,-35.07,0,*53
1514844211.75,35466,7.75,72482.0,-9.29,-34.71,-34.89,0,*57
1514844212.99,35467,7.75,72480.3,-9.31,-34.83,-35.17,0,*54
1514844214.24,35468,7.75,72476.3,-9.31,-34.83,-35.01,0,*5C
1514844215.5,35469,7.75,72476.3,-9.29,-34.89,-35.07,0,*58
1514844216.74,35470,7.75,72478.0,-9.29,-34.89,-35.17,0,*51
1514844218.01,35471,7.75,72478.8,-9.31,-35.07,-35.23,0,*59
1514844219.24,35472,7.75,72480.0,-9.31,-35.17,-35.35,0,*5C
1514844220.48,35473,7.75,72482.5,-9.29,-34.89,-35.17,0,*52
1514844221.73,35474,7.75,72476.0,-9.31,-34.83,-35.17,0,*56
1514844222.95,35475,7.75,72480.5,-9.31,-35.01,-35.17,0,*5C
1514844224.17,35476,7.75,72476.5,-9.31,-34.71,-34.89,0,*5F
1514844225.39,35477,7.75,72476.8,-9.31,-34.71,-35.01,0,*5F
1514844226.61,35478,7.75,72476.8,-9.31,-34.71,-34.89,0,*51
1514844227.83,35479,7.75,72478.8,-9.31,-34.71,-34.89,0,*50
1514844229.08,35480,7.75,72476.3,-9.31,-34.65,-34.71,0,*54
1514844230.33,35481,7.75,72476.5,-9.31,-34.65,-35.01,0,*53
1514844231.6,35482,7.75,72482.5,-9.33,-34.77,-35.07,0,*57
1514844232.85,35483,7.75,72480.5,-9.33,-34.59,-34.77,0,*5C
1514844234.12,35484,7.75,72476.8,-9.33,-34.77,-35.07,0,*51
1514844235.37,35485,7.75,72484.8,-9.33,-34.77,-34.77,0,*56
1514844236.61,35486,7.75,72482.8,-9.31,-34.71,-35.07,0,*57
1514844237.86,35487,7.75,72480.3,-9.31,-34.53,-34.71,0,*56
1514844239.1,35488,7.75,72480.5,-9.31,-34.71,-34.83,0,*54
1514844240.33,35489,7.75,72476.5,-9.31,-34.71,-35.01,0,*5E
1514844241.6,35490,7.75,72482.0,-9.31,-34.83,-35.07,0,*5D
1514844242.82,35491,7.75,72478.3,-9.31,-34.71,-34.89,0,*56
1514844244.04,35492,7.75,72482.0,-9.31,-34.89,-35.01,0,*53
1514844245.28,35493,7.75,72478.8,-9.31,-34.89,-35.07,0,*54
1514844246.54,35494,7.75,72478.0,-9.33,-34.89,-35.23,0,*57
1514844247.75,35495,7.75,72478.5,-9.31,-34.89,-35.17,0,*53
1514844248.97,35496,7.75,72476.8,-9.31,-35.01,-35.17,0,*51
1514844250.24,35497,7.75,72478.0,-9.35,-34.95,-35.23,0,*5F
1514844251.48,35498,7.75,72478.8,-9.33,-34.77,-34.89,0,*5B
1514844252.7,35499,7.75,72474.0,-9.31,-34.41,-34.47,0,*5F
1514844253.94,35500,7.75,72478.0,-9.33,-34.59,-34.71,0,*50
1514844255.19,35501,7.75,72480.0,-9.31,-34.53,-34.71,0,*59
1514844256.47,35502,7.75,72478.0,-9.29,-34.47,-34.53,0,*56
1514844257.73,35503,7.75,72476.0,-9.31,-34.65,-34.83,0,*53
1514844258.98,35504,7.75,72476.0,-9.31,-34.65,-34.89,0,*5E
1514844260.21,35505,7.75,72476.0,-9.31,-34.71,-35.01,0,*5B
1514844261.42,35506,7.75,72478.8,-9.31,-34.89,-35.17,0,*58
1514844262.67,35507,7.75,72480.8,-9.31,-34.83,-35.01,0,*54
1514844263.94,35508,7.75,72478.0,-9.33,-34.77,-34.95,0,*5E
1514844265.18,35509,7.75,72478.5,-9.35,-34.89,-35.07,0,*52
1514844266.42,35510,7.75,72482.5,-9.31,-34.83,-35.17,0,*55
1514844267.66,35511,7.75,72478.5,-9.35,-34.89,-35.23,0,*5D
1514844268.92,35512,7.75,72476.5,-9.35,-35.07,-35.23,0,*59
1514844270.17,35513,7.75,72478.0,-9.33,-35.13,-35.29,0,*51
1514844271.46,35514,7.75,72476.5,-9.33,-35.07,-35.23,0,*59
1514844272.73,35515,7.75,72480.0,-9.33,-34.95,-35.13,0,*51
1514844273.97,35516,7.75,72482.8,-9.33,-34.89,-35.13,0,*5F
1514844275.24,35517,7.75,72480.5,-9.33,-34.95,-35.13,0,*53
1514844276.51,35518,7.75,72478.0,-9.33,-34.89,-35.07,0,*54
1514844277.78,35519,7.75,72482.0,-9.33,-34.95,-35.13,0,*5D
1514844279.04,35520,7.75,72480.8,-9.33,-35.13,-35.41,0,*5F
1514844280.32,35521,7.75,72482.3,-9.33,-34.95,-35.29,0,*5F
1514844281.56,35522,7.75,72482.0,-9.33,-34.77,-34.89,0,*5B
1514844282.82,35523,7.69,72476.5,-9.33,-34.89,-35.07,0,*5C
1514844284.09,35524,7.75,72480.5,-9.33,-34.77,-35.07,0,*5A
1514844285.35,35525,7.75,72484.5,-9.33,-34.89,-35.23,0,*5C
1514844286.6,35526,7.75,72482.8,-9.33,-34.71,-34.77,0,*58
1514844287.85,35527,7.75,72478.5,-9.35,-34.53,-34.59,0,*53
1514844289.11,35528,7.75,72480.0,-9.33,-34.89,-35.07,0,*57
1514844290.4,35529,7.75,72480.5,-9.33,-34.95,-35.23,0,*5D
1514844291.67,35530,7.75,72482.3,-9.33,-34.95,-35.13,0,*56
1514844292.95,35531,7.75,72478.0,-9.33,-34.95,-35.13,0,*57
1514844294.19,35532,7.75,72482.0,-9.35,-34.77,-35.07,0,*5B
1514844295.41,35533,7.75,72480.3,-9.35,-34.89,-35.13,0,*5E
1514844296.7,35534,7.75,72482.8,-9.33,-34.95,-35.23,0,*51
1514844297.99,35535,7.75,72482.8,-9.33,-35.07,-35.23,0,*5A
1514844299.26,35536,7.75,72480.3,-9.33,-34.95,-35.13,0,*50
1514844300.51,35537,7.75,72482.0,-9.35,-34.77,-34.95,0,*54
1514844301.78,35538,7.75,72478.5,-9.33,-34.77,-35.07,0,*57
1514844303.04,35539,7.75,72478.3,-9.33,-34.89,-35.07,0,*57
1514844304.28,35540,7.75,72482.5,-9.33,-34.89,-35.13,0,*5C
1514844305.55,35541,7.75,72480.3,-9.33,-34.77,-35.07,0,*59
1514844306.8,35542,7.75,72480.0,-9.35,-34.95,-35.13,0,*55
1514844308.07,35543,7.75,72478.3,-9.35,-34.95,-35.23,0,*57
1514844309.31,35544,7.75,72480.5,-9.35,-35.07,-35.13,0,*59
1514844310.61,35545,7.75,72478.0,-9.33,-35.07,-35.23,0,*5D
1514844311.87,35546,7.75,72482.5,-9.35,-34.95,-35.23,0,*52
1514844313.14,35547,7.75,72476.3,-9.35,-34.95,-35.23,0,*53
1514844314.39,35548,7.75,72478.8,-9.35,-35.07,-35.13,0,*55
1514844315.64,35549,7.75,72480.3,-9.35,-34.95,-35.13,0,*5E
1514844316.9,35550,7.75,72480.5,-9.35,-35.07,-35.23,0,*5F
1514844318.17,35551,7.75,72480.0,-9.35,-35.07,-35.23,0,*5E
1514844319.4,35552,7.75,72480.5,-9.35,-35.13,-35.23,0,*58
1514844320.64,35553,7.75,72486.0,-9.35,-35.13,-35.23,0,*59
1514844321.89,35554,7.75,72482.3,-9.37,-35.01,-35.17,0,*58
1514844323.14,35555,7.75,72482.0,-9.37,-35.01,-35.13,0,*5D
1514844324.39,35556,7.75,72480.8,-9.37,-35.01,-35.29,0,*57
1514844325.66,35557,7.75,72480.8,-9.35,-34.95,-35.23,0,*52
1514844326.9,35558,7.75,72482.0,-9.37,-35.13,-35.29,0,*5A
1514844328.15,35559,7.75,72480.5,-9.37,-35.13,-35.29,0,*5B
1514844329.39,35560,7.75,72480.5,-9.37,-35.13,-35.29,0,*51
1514844330.64,35561,7.75,72486.3,-9.37,-35.17,-35.29,0,*54
1514844331.89,35562,7.75,72480.0,-9.37,-35.29,-35.29,0,*5A
1514844333.16,35563,7.75,72484.0,-9.37,-35.29,-35.35,0,*56
1514844334.42,35564,7.75,72484.5,-9.37,-35.17,-35.35,0,*5C
1514844335.69,35565,7.75,72484.0,-9.37,-34.83,-35.01,0,*56
1514844336.94,35566,7.75,72484.5,-9.37,-35.13,-35.29,0,*57
1514844338.19,35567,7.75,72484.5,-9.37,-35.13,-35.29,0,*56
1514844339.43,35568,7.75,72484.3,-9.37,-35.17,-35.29,0,*5D
1514844340.68,35569,7.75,72482.5,-9.37,-35.13,-35.29,0,*58
1514844341.93,35570,7.75,72482.5,-9.37,-35.01,-35.29,0,*53
1514844343.17,35571,7.75,72480.3,-9.37,-35.13,-35.29,0,*51
1514844344.39,35572,7.75,72482.3,-9.39,-35.13,-35.29,0,*5C
1514844345.64,35573,7.75,72482.5,-9.37,-35.01,-35.29,0,*50
1514844346.89,35574,7.75,72482.8,-9.37,-35.13,-35.29,0,*54
1514844348.16,35575,7.75,72484.0,-9.37,-34.95,-35.17,0,*57
1514844349.44,35576,7.75,72482.5,-9.37,-34.95,-35.29,0,*59
1514844350.68,35577,7.75,72480.3,-9.39,-34.95,-35.01,0,*5C
1514844351.95,35578,7.75,72486.8,-9.39,-34.83,-34.95,0,*58
1514844353.25,35579,7.75,72482.5,-9.37,-34.83,-34.95,0,*57
1514844354.49,35580,7.75,72480.3,-9.39,-34.95,-35.17,0,*53
1514844355.74,35581,7.75,72480.8,-9.39,-34.95,-35.13,0,*56
1514844356.98,35582,7.75,72482.5,-9.39,-34.83,-35.01,0,*51
1514844358.2,35583,7.75,72486.8,-9.39,-35.01,-35.13,0,*58
1514844359.42,35584,7.69,72482.5,-9.39,-35.13,-35.29,0,*55
1514844360.64,35585,7.69,72482.5,-9.39,-35.01,-35.17,0,*5A
1514844361.91,35586,7.75,72482.5,-9.37,-34.95,-35.01,0,*5C
1514844363.16,35587,7.75,72484.3,-9.37,-35.01,-35.17,0,*56
1514844364.4,35588,7.75,72480.5,-9.39,-34.83,-35.01,0,*5B
1514844365.65,35589,7.75,72482.8,-9.39,-34.83,-35.01,0,*5A
1514844366.89,35590,7.75,72480.5,-9.39,-34.95,-35.13,0,*56
1514844368.13,35591,7.75,72486.3,-9.39,-34.95,-35.17,0,*53
1514844369.38,35592,7.75,72480.5,-9.39,-34.95,-35.13,0,*54
1514844370.65,35593,7.75,72480.3,-9.37,-34.83,-35.13,0,*5C
1514844371.87,35594,7.75,72480.3,-9.39,-35.01,-35.13,0,*5E
1514844373.09,35595,7.75,72480.8,-9.39,-35.13,-35.29,0,*55
1514844374.33,35596,7.75,72484.0,-9.39,-34.83,-35.13,0,*57
1514844375.58,35597,7.69,72482.5,-9.39,-34.83,-35.01,0,*55
1514844376.82,35598,7.75,72480.3,-9.39,-34.83,-35.01,0,*5A
1514844378.1,35599,7.75,72482.3,-9.37,-34.83,-35.01,0,*55
1514844379.34,35600,7.75,72484.3,-9.39,-34.95,-35.13,0,*5C
1514844380.59,35601,7.75,72484.8,-9.39,-34.83,-35.13,0,*5A
1514844381.8,35602,7.75,72480.8,-9.39,-35.13,-35.29,0,*58
1514844383.04,35603,7.75,72482.8,-9.39,-34.95,-35.17,0,*5B
1514844384.29,35604,7.75,72482.5,-9.39,-34.83,-35.13,0,*5F
1514844385.53,35605,7.75,72482.3,-9.39,-34.95,-35.01,0,*5A
1514844386.78,35606,7.75,72484.0,-9.39,-34.95,-35.13,0,*5A
1514844388.04,35607,7.75,72486.0,-9.39,-34.83,-34.83,0,*54
1514844389.29,35608,7.75,72488.0,-9.39,-34.83,-35.01,0,*50
1514844390.56,35609,7.75,72484.8,-9.41,-35.01,-35.35,0,*52
1514844391.8,35610,7.75,72482.5,-9.39,-34.83,-35.01,0,*59
1514844393.05,35611,7.75,72486.0,-9.39,-34.83,-35.01,0,*58
1514844394.35,35612,7.69,72482.3,-9.37,-34.83,-34.95,0,*59
1514844395.59,35613,7.75,72484.8,-9.41,-34.89,-34.89,0,*5E
1514844396.86,35614,7.75,72486.5,-9.39,-34.83,-34.95,0,*51
1514844398.1,35615,7.75,72486.3,-9.39,-34.83,-35.13,0,*5F
1514844399.34,35616,7.75,72486.0,-9.39,-34.95,-35.13,0,*5B
1514844400.56,35617,7.75,72486.3,-9.39,-35.01,-35.17,0,*52
1514844401.81,35618,7.75,72484.0,-9.39,-34.95,-35.13,0,*55
1514844403.08,35619,7.75,72482.8,-9.41,-35.01,-35.07,0,*52
1514844404.34,35620,7.75,72484.5,-9.41,-34.89,-35.07,0,*59
1514844405.62,35621,7.69,72480.0,-9.41,-35.01,-35.23,0,*5F
1514844406.91,35622,7.75,72482.8,-9.41,-35.07,-35.35,0,*5D
1514844408.15,35623,7.75,72486.0,-9.39,-34.95,-35.17,0,*59
1514844409.42,35624,7.75,72486.5,-9.41,-34.89,-35.07,0,*5D
1514844410.67,35625,7.75,72482.0,-9.41,-34.89,-35.01,0,*5A
1514844411.93,35626,7.75,72484.8,-9.41,-34.89,-35.07,0,*5F
1514844413.21,35627,7.75,72486.8,-9.41,-34.83,-35.01,0,*52
1514844414.45,35628,7.75,72484.8,-9.41,-34.89,-35.17,0,*50
1514844415.69,35629,7.75,72486.8,-9.39,-34.83,-35.01,0,*53
1514844416.96,35630,7.69,72484.5,-9.41,-35.01,-35.07,0,*59
1514844418.23,35631,7.75,72486.0,-9.41,-34.83,-34.89,0,*54
1514844419.48,35632,7.69,72480.3,-9.41,-34.71,-34.71,0,*5D
1514844420.78,35633,7.75,72484.5,-9.41,-34.83,-34.83,0,*5C
1514844422.05,35634,7.75,72486.5,-9.41,-34.83,-35.01,0,*50
1514844423.33,35635,7.75,72486.5,-9.41,-34.83,-35.01,0,*51
1514844424.55,35636,7.75,72486.5,-9.43,-34.71,-34.71,0,*5B
1514844425.83,35637,7.75,72482.8,-9.41,-34.83,-35.01,0,*53
1514844427.11,35638,7.75,72484.3,-9.41,-34.83,-35.01,0,*5C
1514844428.38,35639,7.75,72482.3,-9.41,-35.01,-35.07,0,*50
1514844429.64,35640,7.75,72484.3,-9.41,-34.89,-35.07,0,*5F
1514844430.92,35641,7.75,72486.5,-9.41,-35.01,-35.07,0,*5F
1514844432.19,35642,7.75,72486.0,-9.41,-35.01,-35.23,0,*5A
1514844433.45,35643,7.75,72486.5,-9.41,-34.89,-35.07,0,*5C
1514844434.69,35644,7.75,72484.0,-9.41,-34.89,-35.17,0,*5A
1514844435.92,35645,7.75,72480.8,-9.43,-34.47,-34.59,0,*50
1514844437.19,35646,7.75,72480.5,-9.41,-34.65,-34.71,0,*5B
1514844438.46,35647,7.75,72482.5,-9.41,-34.83,-34.89,0,*55
1514844439.7,35648,7.75,72480.5,-9.39,-34.77,-34.83,0,*54
1514844440.97,35649,7.69,72482.0,-9.39,-34.65,-34.95,0,*51
1514844442.21,35650,7.75,72484.3,-9.39,-34.83,-35.13,0,*5E
1514844443.48,35651,7.75,72480.8,-9.41,-34.89,-35.07,0,*5F
1514844444.73,35652,7.75,72484.0,-9.41,-35.01,-35.01,0,*5B
1514844445.97,35653,7.75,72482.5,-9.43,-34.89,-35.23,0,*59
1514844447.19,35654,7.69,72480.3,-9.39,-34.89,-35.01,0,*53
1514844448.43,35655,7.69,72480.0,-9.39,-34.83,-35.13,0,*5B
1514844449.67,35656,7.75,72482.5,-9.41,-34.89,-35.01,0,*5E
1514844450.91,35657,7.69,72482.5,-9.41,-34.89,-35.17,0,*58
1514844452.15,35658,7.75,72484.5,-9.41,-34.89,-35.17,0,*57
1514844453.4,35659,7.75,72486.0,-9.41,-34.89,-35.01,0,*51
1514844454.65,35660,7.69,72482.8,-9.41,-35.01,-35.17,0,*5D
1514844455.9,35661,7.75,72484.5,-9.43,-34.59,-34.65,0,*56
1514844457.18,35662,7.69,72482.0,-9.41,-34.47,-34.65,0,*58
1514844458.43,35663,7.75,72480.8,-9.41,-34.47,-34.59,0,*56
1514844459.68,35664,7.75,72480.0,-9.41,-34.47,-34.59,0,*51
1514844460.95,35665,7.75,72480.8,-9.41,-34.71,-34.83,0,*52
1514844462.22,35666,7.75,72482.0,-9.39,-34.83,-34.83,0,*53
1514844463.46,35667,7.75,72482.5,-9.39,-34.83,-35.01,0,*59
1514844464.71,35668,7.75,72484.8,-9.39,-34.83,-35.01,0,*56
1514844465.95,35669,7.75,72486.0,-9.39,-34.83,-35.01,0,*57
1514844467.2,35670,7.75,72480.0,-9.39,-34.83,-35.01,0,*5F
1514844468.44,35671,7.75,72480.8,-9.39,-34.77,-34.83,0,*5E
1514844469.73,35672,7.75,72480.3,-9.41,-34.83,-35.07,0,*54
1514844470.98,35673,7.75,72480.3,-9.39,-34.77,-34.95,0,*5B
1514844472.22,35674,7.69,72476.5,-9.39,-34.53,-34.59,0,*5A
1514844473.47,35675,7.69,72478.8,-9.39,-34.65,-34.77,0,*52
1514844474.72,35676,7.75,72480.8,-9.37,-35.01,-35.29,0,*56
1514844475.93,35677,7.75,72482.0,-9.39,-35.13,-35.17,0,*57
1514844477.17,35678,7.75,72482.8,-9.39,-34.95,-35.17,0,*57
1514844478.39,35679,7.69,72482.0,-9.39,-34.77,-34.77,0,*5D
1514844479.62,35680,7.75,72482.5,-9.39,-34.35,-34.41,0,*58
1514844480.85,35681,7.75,72478.5,-9.39,-34.35,-34.41,0,*59
1514844482.08,35682,7.69,72474.8,-9.39,-34.19,-34.25,0,*56
1514844483.34,35683,7.75,72478.8,-9.39,-33.89,-34.19,0,*56
1514844484.62,35684,7.75,72482.0,-9.37,-34.19,-34.35,0,*5F
1514844485.9,35685,7.69,72478.5,-9.37,-34.53,-34.59,0,*5A
1514844487.14,35686,7.75,72476.5,-9.37,-34.77,-34.77,0,*53
1514844488.42,35687,7.75,72476.5,-9.37,-34.65,-34.77,0,*51
1514844489.67,35688,7.75,72480.3,-9.37,-34.59,-34.77,0,*51
1514844490.94,35689,7.75,72480.3,-9.37,-34.77,-34.95,0,*50
1514844492.22,35690,7.75,72482.0,-9.37,-34.59,-34.65,0,*5B
1514844493.47,35691,7.75,72482.5,-9.39,-34.53,-34.59,0,*51
1514844494.69,35692,7.69,72480.8,-9.35,-34.59,-34.77,0,*58
1514844495.91,35693,7.69,72480.8,-9.35,-34.59,-34.77,0,*59
1514844497.14,35694,7.75,72484.5,-9.35,-34.59,-34.71,0,*58
1514844498.41,35695,7.69,72476.3,-9.37,-34.77,-34.83,0,*5A
1514844499.63,35696,7.75,72476.5,-9.35,-34.59,-34.77,0,*5C
1514844500.87,35697,7.69,72474.5,-9.35,-34.89,-35.07,0,*56
1514844502.14,35698,7.75,72476.0,-9.35,-34.95,-35.23,0,*52
1514844503.38,35699,7.69,72474.3,-9.37,-35.01,-35.17,0,*5A
1514844504.6,35700,7.75,72478.3,-9.35,-34.89,-35.13,0,*5C
1514844505.87,35701,7.69,72478.3,-9.39,-34.83,-34.95,0,*54
1514844507.14,35702,7.75,72476.5,-9.37,-34.41,-34.65,0,*58
1514844508.4,35703,7.75,72476.5,-9.37,-34.25,-34.35,0,*5E
1514844509.64,35704,7.69,72470.5,-9.35,-34.53,-34.71,0,*5A